Theta_e
296 289 286 289 293 295 294 290 287 291 294 291 287 292 294 295 295 297 303 320 324 327 329 334 334 334 335 335 335 335 333 335 337 339 341 338 338 345 346 344 345 351 349 347
291 288 292 296 296 295 294 290 290 290 294 290 288 289 294 293 295 299 308 318 322 322 326 331 334 333 334 334 335 333 333 334 335 338 338 335 330 335 336 338 336 339 337 334
288 292 297 295 294 293 294 290 290 288 291 291 289 286 290 299 309 308 313 317 321 324 324 327 330 330 332 334 334 335 334 334 335 337 334 330 328 332 333 334 331 332 330 329
291 296 295 294 293 295 289 295 295 294 287 283 288 280 286 295 305 308 309 314 317 322 325 326 328 327 330 330 330 331 334 333 335 337 336 330 328 324 332 329 330 329 329 327
289 293 290 293 294 297 292 297 294 294 287 284 285 282 285 298 300 306 309 312 315 321 324 323 326 328 329 331 329 330 332 333 333 334 333 331 328 329 328 328 327 326 327 329
293 299 297 295 297 298 298 293 290 288 285 280 284 283 284 290 294 302 309 312 317 319 322 324 326 326 327 327 327 326 328 330 333 333 334 333 332 332 324 324 324 324 324 325
290 292 296 297 292 295 292 286 279 278 279 279 286 285 286 291 296 304 309 312 316 320 321 322 323 323 324 324 324 325 326 326 331 330 337 334 330 327 323 323 323 322 321 321
283 281 291 294 292 289 289 287 280 277 277 279 288 283 288 295 298 307 312 312 316 319 319 321 321 320 322 324 323 326 326 327 333 331 335 332 329 326 324 324 323 322 320 319
284 286 293 295 296 294 289 286 290 284 284 281 284 288 294 298 302 308 312 315 315 316 316 318 319 320 321 323 323 326 327 329 333 335 330 328 327 326 324 323 323 322 319 319
291 285 292 294 295 294 291 294 286 285 279 278 282 284 286 292 297 304 308 312 315 316 316 317 320 321 322 322 324 325 328 327 332 332 330 328 327 326 324 323 320 318 315 314
292 289 287 291 289 287 288 286 289 288 286 281 280 283 294 299 301 296 302 309 313 315 316 317 319 322 325 326 325 325 329 329 330 329 327 326 325 324 322 319 315 312 310 310
296 290 284 286 290 294 292 289 289 283 284 286 285 285 302 305 307 305 303 302 309 312 315 316 319 323 328 328 326 327 329 326 327 327 326 325 323 320 315 311 309 308 306 307
295 288 280 282 287 291 288 291 291 289 287 284 283 285 301 307 306 307 306 303 308 311 313 316 322 326 330 331 330 327 326 324 323 321 318 317 314 311 309 306 305 305 305 305
301 291 285 280 283 288 286 291 292 288 283 285 287 290 296 304 306 307 308 306 308 311 314 319 325 327 328 327 325 323 321 320 319 317 315 311 308 306 304 304 304 304 305 304
296 289 293 292 295 291 289 289 292 290 289 286 289 292 300 304 308 309 312 310 312 315 319 321 322 322 321 320 320 320 319 319 318 314 309 306 304 304 304 303 302 302 302 302
296 292 295 292 296 293 290 292 292 292 293 295 295 295 306 307 306 305 309 313 314 315 317 319 319 319 318 318 318 319 314 308 306 305 303 303 302 301 300 300 299 299 299 299
291 293 290 286 294 289 284 289 292 294 296 296 293 298 304 303 301 301 302 303 307 308 308 311 315 316 317 316 309 305 305 306 304 303 302 301 300 299 298 299 298 297 297 297
289 290 290 287 289 281 288 296 295 295 298 300 303 304 304 301 300 301 302 300 299 299 299 300 302 303 306 308 307 306 306 304 302 300 299 299 298 297 297 297 296 296 296 296
294 292 286 284 283 289 294 298 295 293 294 303 303 304 303 302 301 298 299 299 298 299 299 299 302 303 303 304 304 303 301 300 299 297 297 297 297 296 295 294 293 293 293 292
295 296 291 287 282 281 291 300 304 302 290 305 305 303 302 301 296 294 298 297 297 298 299 300 300 299 299 299 300 299 298 298 297 297 296 297 296 295 291 290 290 290 290 289
292 292 287 287 283 287 298 302 305 289 289 304 306 305 303 300 299 296 297 296 297 296 296 297 297 296 296 297 297 295 295 294 295 296 295 294 292 291 289 289 288 288 287 287
292 290 287 289 283 282 302 302 296 298 303 306 308 304 297 296 296 297 296 295 295 295 295 296 295 295 296 297 295 293 292 293 294 293 292 291 290 290 289 287 287 287 287 286
292 296 294 294 292 301 306 304 307 306 303 306 306 299 298 297 296 296 295 294 294 293 292 293 292 292 294 294 294 292 292 293 292 291 290 290 289 288 288 287 287 286 286 286
295 301 297 297 300 302 305 306 309 305 305 306 302 300 300 297 297 295 292 291 291 291 289 290 289 288 289 292 292 292 292 292 291 289 288 288 288 288 288 288 287 287 286 286
292 294 295 297 302 302 306 306 306 303 303 302 302 302 299 297 296 294 291 290 289 288 288 289 288 288 288 289 289 290 290 290 289 288 288 288 288 288 287 287 288 288 289 288
299 295 292 292 301 300 301 307 308 304 303 303 301 299 300 299 294 293 290 289 288 287 288 288 288 289 289 289 289 289 289 289 288 287 287 287 287 287 287 287 287 290 290 289
Wind_Speed
10 5 10 9 9 11 5 3 8 9 7 7 3 14 14 4 5 8 7 8 11 11 8 10 10 12 13 12 14 13 13 11 10 4 4 4 4 2 3 4 8 5 4 4
4 4 7 8 11 16 4 2 5 3 5 6 8 9 16 4 6 8 10 8 12 8 10 12 14 12 13 16 16 13 14 13 11 9 7 5 5 4 3 5 7 6 6 9
4 6 5 9 9 13 6 4 2 2 2 3 7 2 6 2 1 4 5 7 11 19 17 14 16 13 8 14 16 15 15 16 14 11 9 8 7 3 1 7 4 5 8 8
6 7 4 6 6 10 4 6 6 6 1 6 3 4 5 5 3 5 8 7 14 14 13 13 15 11 11 11 7 6 9 8 5 7 8 8 4 7 3 6 3 6 6 9
4 6 6 9 9 13 7 5 7 6 3 4 1 5 6 5 5 9 10 8 7 13 16 16 15 13 8 7 3 3 4 7 5 6 7 5 2 5 7 8 7 10 7 3
6 4 8 10 5 11 5 2 3 4 3 2 5 5 4 9 12 2 4 4 6 7 8 7 5 5 4 3 3 5 6 5 6 7 6 9 8 8 10 9 7 4 6 4
2 5 4 4 4 3 4 4 2 2 1 5 4 2 9 4 6 11 12 10 9 8 8 8 10 8 7 7 6 5 6 6 6 7 7 11 13 15 15 12 8 6 5 2
2 1 6 5 5 6 5 7 5 6 6 4 3 5 7 5 5 6 8 3 9 8 7 9 6 7 7 7 8 7 6 4 5 7 7 11 14 10 11 13 10 6 3 4
3 4 2 5 6 7 4 4 3 5 2 4 3 4 8 5 5 4 7 6 8 9 9 7 6 7 7 7 8 8 6 6 7 8 10 12 12 13 14 15 12 8 6 4
4 3 2 2 2 3 5 4 1 2 4 4 0 2 3 4 3 6 7 9 8 6 8 9 8 7 6 5 6 6 8 9 10 11 11 10 11 10 13 11 11 7 5 6
2 1 2 4 6 7 2 2 5 4 2 4 3 2 4 4 3 8 8 9 11 10 10 10 10 7 6 6 6 6 9 11 9 11 10 12 11 11 11 9 8 9 8 7
6 3 3 7 3 8 7 6 5 5 2 3 3 4 5 4 4 2 8 9 7 7 5 7 10 10 9 8 9 10 12 12 10 10 10 10 13 12 13 12 10 8 8 6
1 2 3 6 6 3 4 4 4 5 4 3 5 5 4 2 6 5 7 7 9 6 8 10 11 12 12 11 9 8 8 12 12 10 12 12 11 13 12 11 10 8 8 6
3 3 5 6 6 4 4 5 5 5 4 4 5 6 4 9 10 11 11 5 7 10 11 10 11 13 10 9 10 11 10 11 13 12 12 11 12 12 11 10 9 8 6 7
5 2 3 3 5 2 4 5 6 6 4 5 4 6 2 5 7 8 8 5 10 11 13 13 12 10 13 12 12 12 11 8 11 13 13 12 12 11 10 10 9 8 7 6
7 3 3 5 4 5 4 5 7 2 4 2 2 3 7 8 9 13 11 7 11 9 11 14 15 16 15 16 13 12 13 14 12 13 12 14 12 11 10 9 9 9 7 6
5 3 2 2 6 3 4 9 8 6 4 6 6 4 5 7 8 8 10 13 10 10 9 12 13 13 13 14 16 17 14 17 16 15 11 12 10 11 9 8 8 7 6 5
4 5 2 3 3 1 7 2 7 5 1 4 6 7 8 9 7 7 10 12 13 12 10 13 12 15 14 12 12 17 14 12 16 15 11 10 9 10 8 7 8 7 4 5
11 2 2 1 2 3 2 4 2 8 6 6 11 10 11 11 8 7 10 14 13 11 10 13 12 15 15 15 14 15 15 15 15 13 11 9 9 10 9 8 8 6 7 8
9 6 3 3 1 1 2 4 7 2 5 11 12 18 18 14 4 4 6 17 14 12 9 11 12 15 16 13 13 16 14 14 14 11 10 8 9 11 10 8 8 6 7 9
4 2 3 2 4 3 5 12 7 4 5 3 14 17 13 5 2 14 13 13 13 11 11 11 14 16 14 13 14 16 14 14 10 9 11 10 9 10 7 10 7 7 9 8
1 1 3 1 2 4 11 7 1 3 9 11 11 9 12 14 17 18 15 15 12 14 14 13 15 14 11 10 15 15 14 9 10 10 11 10 8 8 8 11 8 9 7 8
2 3 3 1 3 1 2 6 9 9 10 6 10 16 19 16 15 19 14 13 12 13 12 10 12 14 11 10 11 15 10 9 11 10 10 9 10 7 6 7 8 7 6 5
7 5 3 3 5 8 2 10 9 6 1 12 18 18 20 20 17 17 14 12 12 11 10 10 13 13 12 11 12 12 10 8 10 10 9 7 7 6 6 6 6 5 5 6
4 7 5 3 2 9 3 9 5 8 10 17 16 18 20 20 17 17 15 14 11 10 9 10 11 12 12 10 10 8 8 7 9 9 8 7 7 6 5 5 4 5 4 5
3 3 3 4 7 3 11 7 3 5 8 15 21 19 15 15 18 17 14 12 10 11 10 11 11 13 11 9 9 8 7 8 9 9 6 5 4 4 4 4 4 7 11 14
Wind_Direction
163 205 195 207 225 240 11 179 155 228 230 159 174 201 248 232 223 226 230 155 158 150 153 131 127 129 129 139 134 132 129 132 122 110 104 82 46 12 355 237 232 197 199 139
8 238 245 176 199 249 271 355 296 209 182 145 175 193 236 174 230 201 195 156 154 139 155 151 151 151 157 162 154 146 143 146 138 144 139 131 149 99 84 2 18 55 60 67
159 270 264 211 193 230 238 209 252 215 138 163 142 180 192 216 260 263 251 143 163 164 166 169 167 171 165 171 166 170 174 174 168 165 142 148 157 110 260 89 30 31 95 95
202 197 337 204 215 197 219 206 224 285 102 171 151 225 255 198 201 251 232 195 166 176 179 173 173 185 182 194 190 179 167 188 187 200 162 159 170 146 151 104 132 122 106 137
228 150 311 260 222 180 226 224 200 225 233 111 281 99 241 132 207 225 228 220 196 175 178 178 188 192 189 211 217 133 136 166 158 143 147 157 138 96 99 103 158 117 146 119
257 173 191 199 202 174 168 182 44 54 83 50 230 130 254 198 198 184 261 193 199 181 166 163 154 147 172 132 117 119 140 162 174 182 151 147 154 128 126 129 117 119 93 47
248 200 237 167 147 283 102 96 78 53 84 204 275 97 230 222 198 177 202 209 192 177 170 172 174 168 165 157 159 169 177 187 166 139 129 138 136 138 129 125 123 143 123 214
222 246 185 184 165 184 172 166 157 166 165 188 92 217 258 253 223 184 201 222 146 173 189 200 164 142 154 159 166 175 196 173 177 159 125 129 132 131 135 143 148 164 140 204
171 279 153 182 152 138 194 204 164 110 346 96 199 297 316 352 74 109 160 164 180 176 184 165 137 157 164 166 179 167 150 123 139 152 132 131 135 148 150 145 151 152 173 169
291 336 136 146 88 66 149 160 139 357 140 161 72 209 230 23 308 150 172 199 207 177 164 146 161 171 168 164 142 127 132 132 127 128 135 137 144 149 135 145 143 141 116 110
254 116 1 95 192 159 87 38 58 111 98 141 124 254 223 267 272 285 268 212 195 195 191 163 164 160 140 129 125 114 120 134 132 126 135 132 131 133 130 122 118 119 108 107
222 163 199 221 254 171 167 179 151 119 238 67 118 268 118 261 311 257 275 264 259 216 154 142 144 145 146 147 150 148 142 134 130 128 131 136 127 139 126 115 106 107 101 98
209 314 22 0 12 13 144 159 119 111 80 179 130 260 180 4 344 337 319 244 211 153 130 140 150 156 155 159 144 142 134 124 117 117 111 110 111 105 105 104 106 102 102 96
296 161 151 199 213 168 141 155 154 108 105 176 212 273 332 17 352 347 345 305 147 144 146 146 141 152 132 125 123 114 106 113 117 112 105 103 105 99 99 99 95 89 90 94
45 314 11 278 261 207 161 185 160 179 177 146 230 209 28 20 18 4 347 62 112 139 145 141 141 123 107 102 100 99 97 107 120 116 111 100 93 94 94 92 87 81 75 79
342 2 309 298 304 202 186 209 211 204 119 80 183 229 93 61 43 33 9 110 120 132 142 139 131 122 122 119 114 107 92 74 60 71 72 87 87 85 79 75 72 73 63 59
304 323 293 76 324 81 314 220 182 190 152 156 207 204 140 83 58 39 32 37 45 58 73 87 101 110 120 122 120 112 96 93 83 69 56 63 66 70 69 81 84 76 77 67
287 354 306 293 31 181 247 245 205 183 225 153 102 132 100 107 103 83 61 65 46 47 52 73 77 82 77 86 100 99 103 113 109 101 98 87 86 86 78 79 79 71 64 65
200 279 292 48 228 283 34 350 138 163 235 168 138 129 129 139 104 37 80 81 73 62 58 72 83 88 90 88 88 93 98 91 83 87 85 89 96 90 81 66 62 58 66 59
171 240 67 328 255 207 7 330 325 82 290 172 157 159 165 173 182 127 140 97 83 76 77 90 88 84 79 77 89 86 83 84 82 83 85 83 82 85 83 82 76 66 68 62
137 203 210 242 280 318 20 305 301 163 224 229 168 164 155 198 129 121 94 86 89 97 90 88 85 82 83 83 81 80 81 74 79 87 91 84 75 82 88 79 59 64 64 62
72 91 239 157 265 345 3 353 168 290 292 184 177 125 104 113 117 106 100 97 108 96 90 78 84 78 76 92 100 95 85 88 84 81 79 76 66 71 73 77 67 62 62 61
19 2 306 220 261 167 342 307 285 266 243 142 139 124 125 124 118 114 117 111 99 91 84 84 89 86 74 77 91 100 97 92 92 83 75 79 72 61 65 83 77 68 58 62
340 15 307 6 357 321 285 344 353 315 153 110 123 132 132 135 128 119 115 106 97 95 99 96 89 85 79 75 80 88 94 93 95 94 93 84 92 81 70 74 78 74 52 45
248 333 306 284 7 322 278 357 360 20 92 110 120 133 137 129 127 121 116 113 110 114 100 94 98 97 89 88 86 90 92 101 98 92 89 86 73 77 84 70 71 68 47 54
307 360 5 298 351 310 291 328 68 78 106 122 124 124 128 129 123 120 114 116 119 110 106 101 98 98 96 88 88 81 81 94 92 85 79 78 87 82 81 85 62 42 65 54